K3JAR-3 Weather Reports


Display with metric or nautical units.
time (UTC)temp
F
wind
direction
speed
MPH
gust
MPH
rain 1hr
in
rain 24hr
in
rain mn
in
humidity
%
barometer
mb
20260831105030 78 172 3.0 4.0 0.00 0.00 0.00 74 1017.2
20260831104033 78 165 4.0 4.0 0.00 0.00 0.00 74 1017.2
20260831103019 79 162 4.0 4.0 0.00 0.00 0.00 73 1017.2
20260831102022 79 158 4.0 4.0 0.00 0.00 0.00 72 1017.2
20260831101025 79 166 3.0 4.0 0.00 0.00 0.00 71 1017.1
20260831100028 79 178 4.0 5.0 0.00 0.00 0.00 71 1017.0
20260831095031 79 184 4.0 5.0 0.00 0.00 0.00 70 1017.2
20260831094017 80 170 4.0 5.0 0.00 0.00 0.00 69 1017.1
20260831093020 80 166 3.0 5.0 0.00 0.00 0.00 69 1017.0
20260831092023 80 150 4.0 5.0 0.00 0.00 0.00 68 1016.9
20260831091026 80 174 4.0 6.0 0.00 0.00 0.00 67 1016.8
20260831090109 80 169 3.0 4.0 0.00 0.00 0.00 65 1016.8
20260831085032 81 166 4.0 6.0 0.00 0.00 0.00 65 1016.8
20260831084018 81 169 4.0 5.0 0.00 0.00 0.00 64 1016.6
20260831083021 81 172 3.0 5.0 0.00 0.00 0.00 63 1016.6
20260831082024 81 169 5.0 8.0 0.00 0.00 0.00 62 1016.7
20260831081022 81 191 4.0 6.0 0.00 0.00 0.00 61 1016.8
20260831080019 82 192 4.0 6.0 0.00 0.00 0.00 60 1016.6
20260831075041 82 192 4.0 6.0 0.00 0.00 0.00 59 1016.6
20260831074019 82 176 4.0 6.0 0.00 0.00 0.00 59 1016.6
20260831073023 82 183 4.0 6.0 0.00 0.00 0.00 58 1016.6
20260831072026 83 168 5.0 8.0 0.00 0.00 0.00 57 1016.6
20260831071029 83 180 6.0 8.0 0.00 0.00 0.00 56 1016.6
20260831070053 83 193 6.0 9.0 0.00 0.00 0.00 56 1016.8
20260831065018 84 183 4.0 7.0 0.00 0.00 0.00 55 1016.8
20260831064041 84 173 5.0 7.0 0.00 0.00 0.00 54 1016.7
20260831063024 84 183 6.0 8.0 0.00 0.00 0.00 54 1016.6
20260831062027 84 172 5.0 6.0 0.00 0.00 0.00 54 1016.6
20260831061031 84 171 4.0 5.0 0.00 0.00 0.00 54 1016.6
20260831060036 84 168 3.0 4.0 0.00 0.00 0.00 55 1016.8
20260831055039 84 172 3.0 4.0 0.00 0.00 0.00 56 1016.8
20260831054022 84 166 3.0 4.0 0.00 0.00 0.00 56 1016.6
20260831053030 84 182 2.0 3.0 0.00 0.00 0.00 56 1016.6
20260831052034 83 154 1.0 2.0 0.00 0.00 0.00 56 1016.6
20260831051032 84 175 3.0 4.0 0.00 0.00 0.00 55 1016.6
20260831050037 84 168 1.0 4.0 0.00 0.00 0.00 55 1016.3
20260831045020 84 0.0 0.0 0.00 0.00 0.00 54 1016.3
20260831044030 85 158 1.0 2.0 0.00 0.00 0.00 53 1016.3
20260831043021 85 163 2.0 3.0 0.00 0.00 0.00 53 1016.3
20260831042018 86 156 3.0 4.0 0.00 0.00 0.00 52 1016.3
20260831041036 86 162 2.0 3.0 0.00 0.00 0.00 52 1016.3
20260831040019 86 159 2.0 3.0 0.00 0.00 0.00 52 1016.3
20260831035042 86 159 2.0 2.0 0.00 0.00 0.00 51 1016.1
20260831034030 87 150 1.0 2.0 0.00 0.00 0.00 51 1016.1
20260831033028 87 171 2.0 2.0 0.00 0.00 0.00 50 1016.0
20260831032032 88 155 2.0 3.0 0.00 0.00 0.00 50 1015.9
20260831031017 88 157 0.0 1.0 0.00 0.00 0.00 49 1015.9
20260831030020 88 153 2.0 2.0 0.00 0.00 0.00 49 1015.8
20260831025023 89 151 1.0 2.0 0.00 0.00 0.00 48 1015.6
20260831024026 89 158 2.0 3.0 0.00 0.00 0.00 47 1015.5
20260831023030 90 155 3.0 4.0 0.00 0.00 0.00 47 1015.4
20260831022035 90 166 3.0 3.0 0.00 0.00 0.00 47 1015.3
20260831021018 90 148 1.0 2.0 0.00 0.00 0.00 47 1015.1
20260831020021 90 117 1.0 2.0 0.00 0.00 0.00 45 1014.9
20260831015025 91 155 2.0 3.0 0.00 0.00 0.00 44 1014.7
20260831014028 92 169 2.0 3.0 0.00 0.00 0.00 44 1014.6
20260831013052 92 158 3.0 3.0 0.00 0.00 0.00 43 1014.6
20260831012017 92 160 2.0 3.0 0.00 0.00 0.00 42 1014.6
20260831011020 93 154 3.0 4.0 0.00 0.00 0.00 41 1014.5
20260831010043 94 157 3.0 4.0 0.00 0.00 0.00 39 1014.4
20260831005021 95 155 4.0 7.0 0.00 0.00 0.00 38 1014.3
20260831004018 96 167 4.0 7.0 0.00 0.00 0.00 37 1014.3
20260831003015 97 157 5.0 7.0 0.00 0.00 0.00 36 1014.3
20260831002018 97 157 4.0 6.0 0.00 0.00 0.00 35 1014.3
20260831001022 98 156 3.0 5.0 0.00 0.00 0.00 35 1014.4
20260831000030 98 152 3.0 5.0 0.00 0.00 0.00 35 1014.5
20260830235028 98 148 4.0 6.0 0.00 0.00 0.00 33 1014.5
20260830234031 99 149 4.0 7.0 0.00 0.00 0.00 32 1014.5
20260830233016 99 152 6.0 8.0 0.00 0.00 0.00 32 1014.5
20260830232040 99 152 7.0 9.0 0.00 0.00 0.00 34 1014.6
20260830231024 98 164 5.0 7.0 0.00 0.00 0.00 33 1014.6
20260830230027 99 160 6.0 8.0 0.00 0.00 0.00 33 1014.6
20260830225050 100 155 6.0 9.0 0.00 0.00 0.00 33 1014.6
20260830224032 101 133 5.0 8.0 0.00 0.00 0.00 33 1014.6
20260830223018 101 160 6.0 9.0 0.00 0.00 0.00 31 1014.7
20260830222021 101 169 8.0 10.0 0.00 0.00 0.00 31 1014.7
20260830221024 101 170 8.0 14.0 0.00 0.00 0.00 31 1014.7
20260830220028 101 126 4.0 6.0 0.00 0.00 0.00 31 1014.8
20260830215031 102 131 5.0 8.0 0.00 0.00 0.00 30 1014.8
20260830214016 101 159 7.0 11.0 0.00 0.00 0.00 30 1015.0
20260830213100 101 166 9.0 11.0 0.00 0.00 0.00 30 1015.1
20260830212023 102 183 6.0 10.0 0.00 0.00 0.00 30 1015.2
20260830211020 102 175 6.0 7.0 0.00 0.00 0.00 30 1015.3
20260830210022 102 127 7.0 10.0 0.00 0.00 0.00 30 1015.4
20260830205032 102 157 7.0 12.0 0.00 0.00 0.00 31 1015.6
20260830204024 101 185 6.0 10.0 0.00 0.00 0.00 32 1015.7
20260830203021 101 186 6.0 10.0 0.00 0.00 0.00 31 1015.9
20260830202025 101 159 6.0 9.0 0.00 0.00 0.00 31 1016.0
20260830201028 101 163 8.0 14.0 0.00 0.00 0.00 32 1016.1
20260830200051 101 144 8.0 11.0 0.00 0.00 0.00 32 1016.1
20260830195016 102 185 6.0 12.0 0.00 0.00 0.00 33 1016.3
20260830194019 101 165 6.0 8.0 0.00 0.00 0.00 32 1016.6
20260830193028 101 185 9.0 12.0 0.00 0.00 0.00 34 1016.7
20260830192026 100 149 6.0 9.0 0.00 0.00 0.00 35 1016.8
20260830191029 100 171 9.0 13.0 0.00 0.00 0.00 35 1016.8
20260830190037 100 188 8.0 11.0 0.00 0.00 0.00 36 1017.1
20260830185018 100 184 7.0 11.0 0.00 0.00 0.00 35 1017.2
20260830184021 100 180 7.0 10.0 0.00 0.00 0.00 36 1017.3
20260830183044 99 163 6.0 8.0 0.00 0.00 0.00 36 1017.4
20260830182027 99 186 8.0 11.0 0.00 0.00 0.00 37 1017.5
20260830181030 98 158 9.0 17.0 0.00 0.00 0.00 37 1017.8
20260830180016 99 152 8.0 10.0 0.00 0.00 0.00 37 1017.9
20260830175019 98 148 8.0 13.0 0.00 0.00 0.00 38 1018.2
20260830174022 99 176 5.0 9.0 0.00 0.00 0.00 38 1018.4
20260830173019 97 190 9.0 12.0 0.00 0.00 0.00 39 1018.4
20260830172017 97 177 9.0 16.0 0.00 0.00 0.00 40 1018.5
20260830171032 97 175 9.0 13.0 0.00 0.00 0.00 39 1018.6
20260830170018 97 181 6.0 9.0 0.00 0.00 0.00 38 1018.8
20260830165022 97 180 6.0 9.0 0.00 0.00 0.00 40 1018.8
20260830164024 95 161 7.0 10.0 0.00 0.00 0.00 44 1019.0
20260830163027 96 192 6.0 9.0 0.00 0.00 0.00 45 1019.0
20260830162035 95 178 5.0 7.0 0.00 0.00 0.00 47 1019.0
20260830161016 94 200 6.0 7.0 0.00 0.00 0.00 48 1019.0
20260830160019 93 190 7.0 9.0 0.00 0.00 0.00 49 1019.1
20260830155023 93 186 6.0 9.0 0.00 0.00 0.00 50 1019.0
20260830154026 92 165 6.0 8.0 0.00 0.00 0.00 51 1019.0
20260830153030 92 168 4.0 7.0 0.00 0.00 0.00 54 1019.0
20260830152033 90 211 7.0 8.0 0.00 0.00 0.00 55 1019.0
20260830151018 90 188 5.0 8.0 0.00 0.00 0.00 57 1019.1
20260830150021 89 188 5.0 7.0 0.00 0.00 0.00 59 1018.9
20260830145024 88 169 6.0 8.0 0.00 0.00 0.00 61 1019.0
20260830144027 87 168 5.0 6.0 0.00 0.00 0.00 62 1019.0
20260830143031 87 185 4.0 6.0 0.00 0.00 0.00 64 1019.0
20260830142022 86 199 4.0 5.0 0.00 0.00 0.00 65 1019.0
20260830141020 85 203 4.0 7.0 0.00 0.00 0.00 66 1019.0
20260830140023 85 184 3.0 4.0 0.00 0.00 0.00 68 1019.0
20260830135020 84 177 3.0 4.0 0.00 0.00 0.00 70 1018.9
20260830134018 83 157 3.0 4.0 0.00 0.00 0.00 71 1018.9
20260830133020 82 187 3.0 6.0 0.00 0.00 0.00 72 1018.7
20260830132050 82 152 3.0 5.0 0.00 0.00 0.00 73 1018.6
20260830131015 81 173 2.0 4.0 0.00 0.00 0.00 74 1018.5
20260830130018 80 164 2.0 5.0 0.00 0.00 0.00 75 1018.5
20260830125041 80 167 2.0 3.0 0.00 0.00 0.00 76 1018.4
20260830124025 79 164 0.0 1.0 0.00 0.00 0.00 77 1018.2
20260830123033 77 0.0 0.0 0.00 0.00 0.00 81 1018.1
20260830122031 76 0.0 0.0 0.00 0.00 0.00 81 1018.0
20260830121037 76 0.0 0.0 0.00 0.00 0.00 81 1017.9
20260830120021 77 148 2.0 2.0 0.00 0.00 0.00 80 1017.7
20260830115104 77 161 2.0 2.0 0.00 0.00 0.00 79 1017.6
20260830114027 77 171 2.0 3.0 0.00 0.00 0.00 79 1017.5
20260830113035 78 171 2.0 3.0 0.00 0.00 0.00 77 1017.4
20260830112040 78 174 3.0 5.0 0.00 0.00 0.00 77 1017.3
20260830111018 78 177 3.0 4.0 0.00 0.00 0.00 76 1017.2
20260830110042 78 166 4.0 5.0 0.00 0.00 0.00 75 1017.1